When you browse on this site, cookies collect data to enhance your experience and personalize the content and advertising you see.
Visit our Privacy Policy to learn more. By continuing to use the site, you agree to this use of cookies and data.
  • In Hungary
  • List of Countries
  • For 7 days
  • Water Temperature
  • Weather Map
  • News
  • Weather Widgets
  • user-avatar
    Login

    Hourly Weather Hamyshki

    Today, 18 October, Friday

    Time Temperature Precipitation Wind Pressure Humidity
    00:00 +17°C° 0 mm 2 mps 711 mmHg 42%
    01:00 +16°C° 0 mm 2 mps 711 mmHg 43%
    02:00 +16°C° 0 mm 2 mps 711 mmHg 43%
    03:00 +16°C° 0 mm 2 mps 711 mmHg 44%
    04:00 +16°C° 0 mm 2 mps 711 mmHg 45%
    05:00 +16°C° 0 mm 2 mps 711 mmHg 46%
    06:00 +16°C° 0 mm 2 mps 711 mmHg 47%
    07:00 +19°C° 0 mm 1 mps 711 mmHg 47%
    08:00 +21°C° 0 mm 1 mps 712 mmHg 47%
    09:00 +22°C° 0 mm 1 mps 712 mmHg 48%
    10:00 +23°C° 0 mm 1 mps 712 mmHg 45%
    11:00 +25°C° 0 mm 1 mps 713 mmHg 43%
    12:00 +26°C° 0 mm 1 mps 713 mmHg 40%
    13:00 +25°C° 0 mm 1 mps 712 mmHg 43%
    14:00 +24°C° 0 mm 1 mps 712 mmHg 47%
    15:00 +24°C° 0 mm 2 mps 712 mmHg 49%
    16:00 +22°C° 0.1 mm 1 mps 712 mmHg 57%
    17:00 +20°C° 0.1 mm 1 mps 711 mmHg 65%
    18:00 +18°C° 0.1 mm 1 mps 711 mmHg 73%
    19:00 +18°C° 0 mm 1 mps 711 mmHg 73%
    20:00 +16°C° 0 mm 1 mps 711 mmHg 74%
    21:00 +16°C° 0 mm 1 mps 711 mmHg 75%
    22:00 +16°C° 0 mm 1 mps 711 mmHg 75%
    23:00 +15°C° 0 mm 1 mps 711 mmHg 75%

    Tomorrow, 19 October, Saturday

    Time Temperature Precipitation Wind Pressure Humidity
    00:00 +15°C° 0 mm 1 mps 711 mmHg 75%
    01:00 +15°C° 0 mm 1 mps 711 mmHg 76%
    02:00 +15°C° 0 mm 1 mps 711 mmHg 76%
    03:00 +15°C° 0 mm 1 mps 711 mmHg 77%
    04:00 +15°C° 0 mm 1 mps 711 mmHg 77%
    05:00 +14°C° 0 mm 1 mps 711 mmHg 77%
    06:00 +14°C° 0 mm 1 mps 712 mmHg 78%
    07:00 +16°C° 0 mm 1 mps 712 mmHg 73%
    08:00 +17°C° 0 mm 0 mps 712 mmHg 68%
    09:00 +19°C° 0 mm 0 mps 713 mmHg 63%
    10:00 +20°C° 0.1 mm 0 mps 713 mmHg 60%
    11:00 +22°C° 0.1 mm 1 mps 713 mmHg 57%
    12:00 +23°C° 0.1 mm 1 mps 713 mmHg 55%
    13:00 +23°C° 0.5 mm 1 mps 713 mmHg 57%
    14:00 +23°C° 0.5 mm 1 mps 713 mmHg 59%
    15:00 +23°C° 0.5 mm 2 mps 712 mmHg 61%
    16:00 +21°C° 0.1 mm 1 mps 712 mmHg 68%
    17:00 +19°C° 0.1 mm 1 mps 712 mmHg 75%
    18:00 +16°C° 0.1 mm 1 mps 712 mmHg 82%
    19:00 +16°C° 0 mm 1 mps 712 mmHg 82%
    20:00 +15°C° 0 mm 1 mps 712 mmHg 82%
    21:00 +15°C° 0 mm 1 mps 712 mmHg 82%
    22:00 +15°C° 0 mm 1 mps 712 mmHg 81%
    23:00 +15°C° 0 mm 1 mps 712 mmHg 80%

    Day after tomorrow, 20 October, Sunday

    Time Temperature Precipitation Wind Pressure Humidity
    00:00 +15°C° 0 mm 1 mps 712 mmHg 79%
    01:00 +14°C° 0 mm 1 mps 712 mmHg 78%
    02:00 +14°C° 0 mm 1 mps 712 mmHg 78%
    03:00 +14°C° 0 mm 1 mps 712 mmHg 77%
    04:00 +14°C° 0 mm 1 mps 712 mmHg 77%
    05:00 +14°C° 0 mm 1 mps 713 mmHg 78%
    06:00 +14°C° 0 mm 1 mps 713 mmHg 78%
    07:00 +16°C° 0 mm 1 mps 713 mmHg 73%
    08:00 +16°C° 0 mm 0 mps 713 mmHg 68%
    09:00 +18°C° 0 mm 0 mps 714 mmHg 64%
    10:00 +21°C° 0 mm 1 mps 714 mmHg 60%
    11:00 +23°C° 0 mm 1 mps 714 mmHg 56%
    12:00 +24°C° 0 mm 2 mps 714 mmHg 52%
    13:00 +23°C° 0.3 mm 2 mps 714 mmHg 54%
    14:00 +23°C° 0.3 mm 2 mps 714 mmHg 57%
    15:00 +23°C° 0.3 mm 2 mps 713 mmHg 59%
    16:00 +20°C° 0.1 mm 2 mps 713 mmHg 65%
    17:00 +19°C° 0.1 mm 1 mps 713 mmHg 72%
    18:00 +16°C° 0.1 mm 1 mps 713 mmHg 79%
    19:00 +16°C° 0 mm 1 mps 713 mmHg 79%
    20:00 +15°C° 0 mm 1 mps 713 mmHg 79%
    21:00 +15°C° 0 mm 1 mps 713 mmHg 79%
    22:00 +15°C° 0 mm 1 mps 713 mmHg 77%
    23:00 +15°C° 0 mm 1 mps 713 mmHg 76%

    21 October, Monday

    Time Temperature Precipitation Wind Pressure Humidity
    00:00 +15°C° 0 mm 1 mps 713 mmHg 74%
    01:00 +14°C° 0 mm 1 mps 712 mmHg 74%
    02:00 +14°C° 0 mm 1 mps 712 mmHg 73%
    03:00 +14°C° 0 mm 1 mps 712 mmHg 73%
    04:00 +14°C° 0 mm 1 mps 712 mmHg 74%
    05:00 +14°C° 0 mm 1 mps 712 mmHg 74%
    06:00 +13°C° 0 mm 1 mps 712 mmHg 74%
    07:00 +14°C° 0 mm 0 mps 713 mmHg 70%
    08:00 +16°C° 0 mm 0 mps 713 mmHg 65%
    09:00 +18°C° 0 mm 0 mps 713 mmHg 61%
    10:00 +19°C° 0 mm 0 mps 713 mmHg 59%
    11:00 +22°C° 0 mm 1 mps 714 mmHg 56%
    12:00 +23°C° 0 mm 2 mps 714 mmHg 54%
    13:00 +23°C° 0 mm 2 mps 713 mmHg 56%
    14:00 +21°C° 0 mm 2 mps 713 mmHg 58%
    15:00 +21°C° 0 mm 2 mps 713 mmHg 59%
    16:00 +19°C° 0 mm 2 mps 713 mmHg 67%
    17:00 +18°C° 0 mm 1 mps 712 mmHg 75%
    18:00 +15°C° 0 mm 1 mps 712 mmHg 83%
    19:00 +15°C° 0 mm 1 mps 712 mmHg 81%
    20:00 +14°C° 0 mm 1 mps 712 mmHg 80%
    21:00 +14°C° 0 mm 1 mps 712 mmHg 79%
    22:00 +14°C° 0 mm 1 mps 712 mmHg 79%
    23:00 +14°C° 0 mm 1 mps 712 mmHg 80%

    22 October, Tuesday

    Time Temperature Precipitation Wind Pressure Humidity
    00:00 +14°C° 0 mm 1 mps 712 mmHg 80%
    01:00 +14°C° 0 mm 1 mps 712 mmHg 81%
    02:00 +13°C° 0 mm 1 mps 712 mmHg 82%
    03:00 +13°C° 0 mm 1 mps 712 mmHg 84%
    04:00 +13°C° 0 mm 1 mps 712 mmHg 83%
    05:00 +13°C° 0 mm 1 mps 712 mmHg 83%
    06:00 +13°C° 0 mm 1 mps 712 mmHg 82%
    07:00 +15°C° 0 mm 1 mps 712 mmHg 76%
    08:00 +16°C° 0 mm 0 mps 713 mmHg 70%
    09:00 +18°C° 0 mm 0 mps 713 mmHg 63%
    10:00 +20°C° 0 mm 1 mps 713 mmHg 60%
    11:00 +21°C° 0 mm 1 mps 713 mmHg 57%
    12:00 +21°C° 0 mm 2 mps 713 mmHg 54%
    13:00 +21°C° 0 mm 2 mps 713 mmHg 55%
    14:00 +22°C° 0 mm 1 mps 713 mmHg 57%
    15:00 +22°C° 0 mm 1 mps 713 mmHg 59%
    16:00 +20°C° 0 mm 1 mps 712 mmHg 68%
    17:00 +18°C° 0 mm 1 mps 712 mmHg 77%
    18:00 +15°C° 0 mm 1 mps 712 mmHg 86%
    19:00 +14°C° 0 mm 1 mps 712 mmHg 84%
    20:00 +14°C° 0 mm 1 mps 712 mmHg 82%
    21:00 +14°C° 0 mm 1 mps 712 mmHg 80%
    22:00 +14°C° 0 mm 1 mps 712 mmHg 78%
    23:00 +14°C° 0 mm 1 mps 712 mmHg 77%

    23 October, Wednesday

    Time Temperature Precipitation Wind Pressure Humidity
    00:00 +14°C° 0 mm 1 mps 712 mmHg 75%
    01:00 +14°C° 0 mm 1 mps 712 mmHg 76%
    02:00 +13°C° 0 mm 1 mps 712 mmHg 78%
    03:00 +13°C° 0 mm 1 mps 712 mmHg 79%
    04:00 +13°C° 0 mm 1 mps 712 mmHg 78%
    05:00 +13°C° 0 mm 1 mps 712 mmHg 77%
    06:00 +13°C° 0 mm 1 mps 712 mmHg 76%
    07:00 +15°C° 0 mm 1 mps 713 mmHg 70%
    08:00 +16°C° 0 mm 0 mps 713 mmHg 64%
    09:00 +18°C° 0 mm 0 mps 714 mmHg 58%
    10:00 +21°C° 0 mm 1 mps 714 mmHg 54%
    11:00 +22°C° 0 mm 1 mps 714 mmHg 49%
    12:00 +23°C° 0 mm 1 mps 714 mmHg 45%
    13:00 +23°C° 0 mm 1 mps 714 mmHg 47%
    14:00 +23°C° 0 mm 2 mps 713 mmHg 50%
    15:00 +21°C° 0 mm 2 mps 713 mmHg 52%
    16:00 +20°C° 0 mm 1 mps 713 mmHg 62%
    17:00 +18°C° 0 mm 1 mps 713 mmHg 72%
    18:00 +14°C° 0 mm 1 mps 712 mmHg 82%
    19:00 +14°C° 0 mm 1 mps 712 mmHg 80%
    20:00 +14°C° 0 mm 1 mps 712 mmHg 78%
    21:00 +14°C° 0 mm 1 mps 712 mmHg 76%
    22:00 +14°C° 0 mm 1 mps 712 mmHg 69%
    23:00 +13°C° 0 mm 1 mps 712 mmHg 63%
    Show more